Regional Weather Roundup
Issued by NWS

Home | Current Version | Previous Version | Text Only | Print | Product List | Glossary Off
Versions: 1 2 3 4 5 6 7 8 9 10 11 12 13 14 15 16 17 18 19 20 21 22 23 24 25 26 27 28 29 30 31 32 33 34 35 36 37 38 39 40 41 42 43 44 45 46 47 48 49 50

000
ASUS43 KLMK 291102
RWRKY
KENTUCKY REGIONAL WEATHER ROUNDUP
NATIONAL WEATHER SERVICE LOUISVILLE KY
700 AM EDT WED MAR 29 2017

NOTE "FAIR" INDICATES FEW OR NO CLOUDS BELOW 12,000 FEET
WITH NO SIGNIFICANT WEATHER AND/OR OBSTRUCTIONS TO VISIBILITY.

KYZ001>023-026-027-061>063-070>075-291200-
WESTERN AND SOUTH CENTRAL KENTUCKY

CITY           SKY/WX    TMP DP  RH WIND       PRES   REMARKS
PADUCAH        CLEAR     52  49  89 E8        30.00S
HENDERSON      CLEAR     52  45  76 E7        30.05S
OWENSBORO      CLEAR    N/A N/A N/A E7        30.06
HOPKINSVILLE   CLEAR     52  52 100 E9        30.02F
BOWLING GREEN  PTCLDY    52  49  89 NE6       30.06S
GLASGOW        NOT AVBL
$$

KYZ024-025-028>034-038-045-046-053-291200-
NORTH CENTRAL KENTUCKY

CITY           SKY/WX    TMP DP  RH WIND       PRES   REMARKS
LOUISVILLE/SDF CLOUDY    54  47  77 E9        30.10S
LOUISVILLE/LOU CLOUDY    54  47  77 NE7       30.11S
FORT KNOX      CLOUDY    51  49  93 NE5       30.08S
$$

KYZ035>037-039>044-047>052-055>060-089>105-291200-
NORTHEAST KENTUCKY

CITY           SKY/WX    TMP DP  RH WIND       PRES   REMARKS
LEXINGTON      CLOUDY    51  45  79 NE15      30.12R
COVINGTON      CLOUDY    46  39  76 NE12      30.16R
FRANKFORT      CLOUDY    52  45  77 NE7       30.11R
$$

KYZ054-064>069-076>088-106>120-291200-
SOUTHEAST KENTUCKY

CITY           SKY/WX    TMP DP  RH WIND       PRES   REMARKS
JACKSON        CLOUDY    51  49  92 VRB3      30.08S
LONDON         CLOUDY    54  50  86 N6        30.08R
SOMERSET       CLOUDY    54  52  94 N5        30.09S
MIDDLESBORO    CLOUDY    47  47 100 CALM      30.08R FOG
MONTICELLO     CLOUDY    55  53  93 NW8       30.09R
$$





USA.gov is the U.S. government's official web portal to all federal, state and local government web resources and services.